[[{"header":{"parameterUnit":"m.s-1","parameterCategory":1,"la1":30.2991,"la2":30.254,"lo1":-89.0895,"lo2":-89.0444,"dy":0.0017,"dx":0.0017,"nx":28,"ny":28,"refTime":"2024-07-17T03:00:00:Z","depth":0,"parameterNumber":2,"parameterNumberName":"U-component_of_WINDS"},"data":[0,0,0,0,0,0,0,0,0,0,0,0,0,0,0,0,0,0,0,0,0,0,0,0,0,0,0,0,0,0,0,0,0,0,0,0,0,0,0,0,0,0,0,0,0,0,0,0,0,0,0,0,0,0,0,0,0,0,2.2062,2.2062,0,2.2111,2.2112,2.2112,2.2139,2.214,2.214,2.214,2.219,2.2191,2.2192,0,0,0,0,0,0,0,0,0,0,0,0,0,2.199,2.1991,2.2061,2.2062,2.2063,2.2111,2.2112,2.2113,2.2139,2.214,2.214,2.214,2.219,2.2191,2.2193,0,0,0,0,0,0,0,0,0,0,0,0,0,2.2028,2.1991,2.2061,2.2082,2.2084,2.2111,2.2112,2.2113,2.2139,2.214,2.214,2.214,2.2189,2.2191,2.2193,2.2203,0,0,2.2199,2.2199,0,0,0,0,0,0,0,0,2.2026,2.2031,2.2078,2.2081,2.2083,2.2119,2.2105,2.2143,2.2139,2.2119,2.214,2.214,2.2166,2.217,2.2179,2.2205,2.2207,2.2199,2.22,2.2201,2.2201,0,0,0,0,0,0,0,2.2024,2.2029,2.2081,2.2079,2.2082,2.2089,2.2094,2.2112,2.2141,2.212,2.2122,2.2128,2.2168,2.2177,2.2181,2.2208,2.2199,2.22,2.2202,2.2202,2.2245,2.2245,0,0,0,0,0,0,2.2018,2.2027,2.208,2.2083,2.2054,2.209,2.2096,2.2108,2.2141,2.2146,2.2128,2.2129,2.2174,2.2178,2.2182,2.2197,2.2201,2.2203,2.2204,2.2245,2.2245,2.2245,0,0,0,0,0,0,2.2016,2.2022,2.2078,2.2055,2.2063,2.2091,2.2104,2.2109,2.2118,2.2147,2.2152,2.2132,2.2174,2.218,2.2198,2.2199,2.2203,2.2205,2.2245,2.2245,2.2245,2.2225,0,0,0,0,0,0,2.2014,2.2021,2.2025,2.2055,2.2064,2.2092,2.2104,2.2109,2.2122,2.2124,2.2152,2.2157,2.2175,2.2195,2.22,2.2202,2.2207,2.2245,2.2245,2.2245,2.2226,2.2224,2.2223,0,0,0,0,0,2.2011,2.2017,2.2025,2.2031,2.2069,2.2092,2.2097,2.2117,2.2121,2.2126,2.2144,2.2156,2.2198,2.2196,2.2202,2.2205,2.2245,2.2245,2.2245,2.2226,2.2225,2.2223,0,0,0,0,0,0,2.1986,2.2021,2.2031,2.2047,2.2066,2.2096,2.2102,2.2114,2.2133,2.2134,2.2158,2.2164,2.218,2.2194,2.2192,2.2217,2.2223,2.2224,2.2207,2.2205,2.2204,2.22,2.2208,0,0,0,0,0,2.1982,2.1997,2.2028,2.2039,2.2048,2.2073,2.2084,2.2098,2.2119,2.2127,2.2147,2.2167,2.2185,2.2196,2.2214,2.2228,2.2235,2.2233,2.2232,2.223,2.2231,2.2241,2.224,2.2245,2.2245,2.2245,0,0,2.1974,2.1996,2.2004,2.2034,2.2051,2.2067,2.208,2.2096,2.2108,2.213,2.2148,2.2163,2.2187,2.2204,2.2212,2.2216,2.2231,2.223,2.2229,2.2231,2.2241,2.224,2.224,2.2245,2.2245,2.2245,0,0,2.1969,2.1986,2.1998,2.2015,2.204,2.2057,2.206,2.2089,2.21,2.2119,2.2136,2.2151,2.218,2.2197,2.2209,2.2211,2.2223,2.2216,2.221,2.2219,2.2218,2.2218,2.2219,2.2219,2.2217,2.2217,2.2217,0,2.1956,2.198,2.2002,2.2017,2.203,2.2052,2.2064,2.2079,2.2109,2.2117,2.2122,2.216,2.2178,2.2199,2.22,2.2209,2.2213,2.2213,2.2217,2.2217,2.2217,2.2218,2.2219,2.2216,2.2216,2.2216,2.2216,0,2.1963,2.198,2.1986,2.2015,2.2029,2.2043,2.2067,2.2078,2.2092,2.2108,2.2128,2.215,2.2173,2.2179,2.2191,2.2202,2.2204,2.2212,2.2219,2.2215,2.2217,2.2217,2.2215,2.2215,2.2215,2.2215,0,0,2.1942,2.1984,2.1986,2.2,2.203,2.2044,2.2058,2.2081,2.2091,2.2111,2.2124,2.215,2.2158,2.2172,2.2187,2.2195,2.2196,2.2202,2.2203,2.2201,2.221,2.2204,2.2204,2.2204,2.2204,2.2204,2.2208,0,2.1941,2.1968,2.1989,2.2009,2.2025,2.2046,2.206,2.208,2.2096,2.2112,2.213,2.2148,2.2157,2.2166,2.2175,2.2194,2.2198,2.2194,2.2217,2.2217,2.221,2.2205,2.2198,2.22,2.2209,2.2209,2.2209,0,2.1943,2.1963,2.1984,2.2014,2.2022,2.2033,2.2057,2.2072,2.2095,2.2107,2.2123,2.2138,2.2155,2.2161,2.2185,2.2182,2.2193,2.2204,2.2204,2.2207,2.2213,2.2208,2.2201,2.2201,2.221,2.221,2.221,0,2.1925,2.1958,2.1975,2.1987,2.2022,2.2029,2.2044,2.2068,2.2081,2.2101,2.211,2.2132,2.2144,2.2161,2.2183,2.2185,2.2205,2.2212,2.2215,2.2214,2.2218,2.2217,2.2213,2.2225,2.2225,2.2224,2.2224,0,2.1922,2.1934,2.1968,2.1979,2.1994,2.2018,2.2032,2.2049,2.207,2.2085,2.2104,2.2118,2.2145,2.2162,2.2179,2.2196,2.2201,2.2211,2.2216,2.221,2.2208,2.2217,2.2217,2.2225,2.2225,2.2225,2.2225,0,2.1905,2.1928,2.1949,2.1981,2.1989,2.1998,2.2026,2.2037,2.2055,2.2073,2.2079,2.2107,2.2128,2.2151,2.2179,2.2191,2.2208,2.2214,2.22,2.2202,2.2204,2.2203,2.2205,2.2207,2.2217,2.2216,2.2216,0,2.1901,2.1911,2.1944,2.1956,2.197,2.1988,2.2002,2.2027,2.204,2.2069,2.2077,2.2099,2.2118,2.2151,2.2173,2.2195,2.2202,2.2202,2.2206,2.22,2.2203,2.2202,2.2203,2.22,2.22,2.22,2.22,0,2.1891,2.1903,2.1922,2.1945,2.1961,2.1981,2.2001,2.2009,2.2038,2.2052,2.2074,2.2089,2.2118,2.2141,2.2166,2.2181,2.2195,2.2198,2.22,2.2194,2.2186,2.2191,2.2196,2.2198,2.2198,2.2198,2.2198,2.2198,2.1881,2.1891,2.1917,2.1938,2.1956,2.1975,2.1988,2.2008,2.2026,2.2052,2.2066,2.2088,2.2112,2.2148,2.2163,2.2181,2.2185,2.2187,2.2188,2.2188,2.2187,2.2183,2.2185,2.2185,2.2185,2.2185,2.2185,0,2.1873,2.1891,2.191,2.1938,2.1955,2.1967,2.1991,2.2004,2.2023,2.2045,2.2064,2.2089,2.2111,2.2136,2.216,2.2169,2.2176,2.2175,2.2174,2.2178,2.2182,2.2178,2.2169,2.2169,2.2169,2.2169,2.2169,2.2169,2.1871,2.1889,2.1904,2.1932,2.195,2.1972,2.1985,2.2002,2.202,2.2048,2.2066,2.2083,2.2106,2.2132,2.2153,2.216,2.2168,2.2164,2.2173,2.2176,2.2177,2.2179,2.2175,2.2166,2.2166,2.2168,2.2168,2.2168]},{"header":{"parameterUnit":"m.s-1","parameterCategory":1,"la1":30.2991,"la2":30.254,"lo1":-89.0895,"lo2":-89.0444,"dy":0.0017,"dx":0.0017,"nx":28,"ny":28,"refTime":"2024-07-17T03:00:00:Z","depth":0,"parameterNumber":3,"parameterNumberName":"V-component_of_WINDS"},"data":[0,0,0,0,0,0,0,0,0,0,0,0,0,0,0,0,0,0,0,0,0,0,0,0,0,0,0,0,0,0,0,0,0,0,0,0,0,0,0,0,0,0,0,0,0,0,0,0,0,0,0,0,0,0,0,0,0,0,-0.2561,-0.2561,0,-0.26,-0.26,-0.2601,-0.2608,-0.2608,-0.2608,-0.2607,-0.2647,-0.2648,-0.2649,0,0,0,0,0,0,0,0,0,0,0,0,0,-0.2494,-0.2495,-0.2561,-0.2561,-0.2562,-0.26,-0.26,-0.2601,-0.2608,-0.2608,-0.2607,-0.2607,-0.2646,-0.2648,-0.2649,0,0,0,0,0,0,0,0,0,0,0,0,0,-0.2527,-0.2495,-0.2561,-0.257,-0.2571,-0.26,-0.26,-0.2601,-0.2608,-0.2608,-0.2607,-0.2607,-0.2646,-0.2648,-0.265,-0.2671,0,0,-0.2656,-0.2657,0,0,0,0,0,0,0,0,-0.2525,-0.2529,-0.2568,-0.257,-0.2571,-0.2599,-0.2591,-0.2624,-0.2608,-0.2594,-0.2607,-0.2607,-0.2631,-0.2634,-0.2642,-0.2673,-0.2675,-0.2656,-0.2657,-0.2658,-0.2658,0,0,0,0,0,0,0,-0.2522,-0.2527,-0.2576,-0.2569,-0.2571,-0.2573,-0.2577,-0.2597,-0.2615,-0.2595,-0.2596,-0.2601,-0.2632,-0.264,-0.2643,-0.2675,-0.2656,-0.2658,-0.2659,-0.266,-0.2726,-0.2727,0,0,0,0,0,0,-0.2518,-0.2525,-0.2575,-0.2577,-0.2546,-0.2574,-0.2579,-0.259,-0.2615,-0.2618,-0.2601,-0.2601,-0.2637,-0.2641,-0.2645,-0.2673,-0.2658,-0.266,-0.2661,-0.2726,-0.2726,-0.2727,0,0,0,0,0,0,-0.2517,-0.2523,-0.2574,-0.2552,-0.2558,-0.2576,-0.2589,-0.2591,-0.26,-0.2619,-0.2622,-0.2607,-0.2637,-0.2642,-0.2665,-0.2674,-0.2661,-0.2662,-0.2725,-0.2726,-0.2727,-0.2728,0,0,0,0,0,0,-0.2515,-0.2522,-0.253,-0.2552,-0.2559,-0.2593,-0.2589,-0.2592,-0.2604,-0.2604,-0.2625,-0.2628,-0.2637,-0.2662,-0.2667,-0.2677,-0.2664,-0.2724,-0.2725,-0.2726,-0.2727,-0.2728,-0.273,0,0,0,0,0,-0.2513,-0.2529,-0.2531,-0.2537,-0.257,-0.2593,-0.2598,-0.2608,-0.2604,-0.2613,-0.2625,-0.2627,-0.2672,-0.2664,-0.267,-0.268,-0.2724,-0.2725,-0.2726,-0.2726,-0.2728,-0.273,0,0,0,0,0,0,-0.2508,-0.2532,-0.2534,-0.2558,-0.2574,-0.2594,-0.2606,-0.2609,-0.2626,-0.2626,-0.2637,-0.2642,-0.2664,-0.2674,-0.2665,-0.2703,-0.2698,-0.27,-0.2696,-0.2698,-0.2699,-0.2696,-0.2666,0,0,0,0,0,-0.2509,-0.2526,-0.2546,-0.2565,-0.2573,-0.2588,-0.2598,-0.2605,-0.2622,-0.2628,-0.2642,-0.2658,-0.2676,-0.2687,-0.2704,-0.2728,-0.2733,-0.2738,-0.274,-0.2741,-0.2743,-0.2758,-0.276,-0.2731,-0.2731,-0.2731,0,0,-0.2513,-0.2528,-0.2538,-0.2565,-0.2577,-0.2595,-0.2593,-0.2612,-0.2625,-0.2631,-0.2654,-0.2664,-0.2683,-0.2706,-0.2718,-0.2716,-0.2752,-0.2742,-0.2743,-0.2745,-0.2759,-0.2762,-0.2764,-0.2732,-0.2732,-0.2732,0,0,-0.2529,-0.2542,-0.2559,-0.2573,-0.2592,-0.2602,-0.2607,-0.2627,-0.2635,-0.2658,-0.2663,-0.2679,-0.2708,-0.2722,-0.2733,-0.2754,-0.2758,-0.276,-0.2768,-0.2782,-0.2784,-0.2786,-0.2795,-0.2798,-0.2762,-0.2762,-0.2762,0,-0.2531,-0.2558,-0.2568,-0.2587,-0.2598,-0.2605,-0.2623,-0.2635,-0.266,-0.2668,-0.2665,-0.2704,-0.2717,-0.2744,-0.275,-0.2758,-0.2763,-0.2758,-0.2783,-0.2785,-0.2787,-0.2796,-0.2799,-0.2762,-0.2762,-0.2762,-0.2762,0,-0.256,-0.2578,-0.259,-0.2614,-0.2627,-0.2645,-0.2659,-0.2671,-0.2676,-0.2687,-0.271,-0.2726,-0.2747,-0.2754,-0.2759,-0.2783,-0.2781,-0.278,-0.2776,-0.279,-0.2798,-0.2801,-0.2762,-0.2762,-0.2762,-0.2762,0,0,-0.2574,-0.2604,-0.2608,-0.2619,-0.2642,-0.2656,-0.2675,-0.2696,-0.2707,-0.2723,-0.274,-0.2765,-0.2765,-0.2777,-0.2784,-0.2796,-0.2814,-0.2794,-0.2795,-0.2798,-0.2842,-0.2843,-0.2847,-0.2816,-0.2817,-0.2817,-0.2841,0,-0.2593,-0.2627,-0.2638,-0.2666,-0.2684,-0.2691,-0.2707,-0.2723,-0.2733,-0.275,-0.2761,-0.2779,-0.2777,-0.2785,-0.2797,-0.2809,-0.2823,-0.2808,-0.2832,-0.2833,-0.2828,-0.2851,-0.2852,-0.2874,-0.2844,-0.2845,-0.2845,0,-0.262,-0.2638,-0.2669,-0.269,-0.2698,-0.2713,-0.2733,-0.2749,-0.2767,-0.2773,-0.2788,-0.2794,-0.2814,-0.2807,-0.2836,-0.2825,-0.2836,-0.2843,-0.2844,-0.2848,-0.2841,-0.2856,-0.2881,-0.2885,-0.285,-0.285,-0.2849,0,-0.2629,-0.266,-0.2683,-0.2693,-0.2718,-0.2728,-0.2739,-0.2757,-0.2769,-0.2787,-0.2795,-0.2815,-0.2826,-0.2841,-0.2853,-0.2847,-0.288,-0.2875,-0.2887,-0.2887,-0.2895,-0.2894,-0.2923,-0.29,-0.29,-0.29,-0.2899,0,-0.265,-0.2669,-0.2688,-0.2702,-0.2723,-0.2735,-0.2756,-0.2767,-0.2783,-0.2799,-0.2806,-0.2821,-0.2835,-0.2852,-0.2861,-0.2884,-0.2889,-0.2895,-0.2897,-0.2895,-0.2894,-0.2903,-0.2902,-0.29,-0.29,-0.29,-0.29,0,-0.2664,-0.2677,-0.2702,-0.2724,-0.273,-0.2745,-0.2764,-0.2778,-0.2789,-0.281,-0.2815,-0.2832,-0.2853,-0.2865,-0.2891,-0.2898,-0.2923,-0.2924,-0.2917,-0.2919,-0.2931,-0.293,-0.2967,-0.2973,-0.2944,-0.2945,-0.2945,0,-0.2677,-0.2692,-0.2716,-0.2727,-0.2739,-0.2757,-0.277,-0.2782,-0.2795,-0.2818,-0.2829,-0.2851,-0.2868,-0.2901,-0.2916,-0.2936,-0.2939,-0.295,-0.2942,-0.2939,-0.294,-0.294,-0.2942,-0.2952,-0.2952,-0.2952,-0.2952,0,-0.27,-0.2706,-0.2724,-0.2745,-0.276,-0.2777,-0.2794,-0.2803,-0.2818,-0.2832,-0.2854,-0.2868,-0.2895,-0.2917,-0.2938,-0.295,-0.2954,-0.2955,-0.2959,-0.2957,-0.2953,-0.2957,-0.2922,-0.2954,-0.2954,-0.2954,-0.2954,-0.2954,-0.2714,-0.2728,-0.2747,-0.2768,-0.2782,-0.2798,-0.2813,-0.2825,-0.2844,-0.2867,-0.2873,-0.2896,-0.2914,-0.2944,-0.2956,-0.2974,-0.2972,-0.2978,-0.298,-0.2981,-0.2982,-0.2949,-0.2978,-0.2978,-0.2978,-0.2978,-0.2978,0,-0.2738,-0.2751,-0.277,-0.2794,-0.281,-0.2812,-0.2831,-0.2845,-0.2865,-0.2882,-0.29,-0.2925,-0.2946,-0.2962,-0.2984,-0.2996,-0.2998,-0.3001,-0.3001,-0.3004,-0.2982,-0.2977,-0.2999,-0.2999,-0.2999,-0.2999,-0.2999,-0.2999,-0.2753,-0.2777,-0.2785,-0.2816,-0.2829,-0.2852,-0.2863,-0.2878,-0.2892,-0.292,-0.2937,-0.2948,-0.2965,-0.2988,-0.3007,-0.3012,-0.302,-0.3023,-0.3027,-0.3007,-0.3005,-0.3003,-0.2998,-0.3024,-0.3024,-0.3048,-0.3048,-0.3048]}]]